Location: Erp
(42.9417°N, 1.2009°E)
Time: 07:03:36
(UTC+00:00)

Cosmos 1943 - Pass Details

Date: 12 January 2026
Orbit: 830 x 850 km, 71.0° (Epoch: 10 February)

Event Time Altitude Azimuth Distance (km) Brightness Sun altitude
Rises 17:26:46 0° 193° (SSW) 3,363 6.9 -8.1°
Reaches altitude 10° 17:29:13 10° 190° (S) 2,436 6.1 -8.5°
Maximum altitude 17:34:43 63° 110° (ESE) 931 3.2 -9.5°
Drops below altitude 10° 17:40:18 10° 31° (NNE) 2,465 5.2 -10.4°
Enters shadow 17:41:31 - 29° (NNE) 2,930 5.6 -10.6°
